When you browse on this site, cookies collect data to enhance your experience and personalize the content and advertising you see.
Visit our Privacy Policy to learn more. By continuing to use the site, you agree to this use of cookies and data.
  • Em Portugal
  • Lista de países
  • Para 7 dias
  • Temperatura da água
  • Mapas de satélite
  • Mapa do tempo
  • Widgets de tempo
  • user-avatar
    Iniciar Sessão

    Previsão horária em Sozopol

    Hoje, 16 Fevereiro, Sábado

    Tempo Temperatura Precipitação Vento Pressão Humidade
    00:00 +2°C° 0.1 mm 8 m/s 768 mmHg 76%
    01:00 +2°C° 0.1 mm 7 m/s 768 mmHg 77%
    02:00 +2°C° 0.1 mm 7 m/s 768 mmHg 78%
    03:00 +2°C° 0 mm 7 m/s 768 mmHg 79%
    04:00 +2°C° 0 mm 7 m/s 768 mmHg 80%
    05:00 0°C° 0 mm 7 m/s 768 mmHg 80%
    06:00 0°C° 0 mm 7 m/s 768 mmHg 80%
    07:00 0°C° 0 mm 7 m/s 768 mmHg 80%
    08:00 +1°C° 0 mm 6 m/s 768 mmHg 80%
    09:00 +1°C° 0 mm 6 m/s 769 mmHg 78%
    10:00 +2°C° 0 mm 6 m/s 769 mmHg 75%
    11:00 +3°C° 0 mm 6 m/s 769 mmHg 73%
    12:00 +3°C° 0 mm 6 m/s 769 mmHg 71%
    13:00 +5°C° 0 mm 5 m/s 768 mmHg 69%
    14:00 +6°C° 0 mm 5 m/s 768 mmHg 67%
    15:00 +6°C° 0 mm 4 m/s 768 mmHg 67%
    16:00 +6°C° 0 mm 4 m/s 768 mmHg 67%
    17:00 +6°C° 0 mm 4 m/s 768 mmHg 68%
    18:00 +5°C° 0 mm 4 m/s 768 mmHg 70%
    19:00 +5°C° 0 mm 4 m/s 768 mmHg 72%
    20:00 +4°C° 0 mm 4 m/s 768 mmHg 75%
    21:00 +4°C° 0 mm 4 m/s 768 mmHg 76%
    22:00 +4°C° 0 mm 3 m/s 768 mmHg 77%
    23:00 +4°C° 0 mm 3 m/s 768 mmHg 78%

    Amanhã, 17 Fevereiro, Domingo

    Tempo Temperatura Precipitação Vento Pressão Humidade
    00:00 +3°C° 0 mm 3 m/s 768 mmHg 79%
    01:00 +3°C° 0 mm 3 m/s 768 mmHg 80%
    02:00 +3°C° 0 mm 3 m/s 768 mmHg 80%
    03:00 +3°C° 0 mm 3 m/s 768 mmHg 81%
    04:00 +3°C° 0 mm 3 m/s 767 mmHg 81%
    05:00 +2°C° 0 mm 3 m/s 767 mmHg 81%
    06:00 +4°C° 0 mm 2 m/s 767 mmHg 80%
    07:00 +4°C° 0 mm 2 m/s 767 mmHg 78%
    08:00 +4°C° 0 mm 2 m/s 767 mmHg 77%
    09:00 +5°C° 0 mm 2 m/s 767 mmHg 71%
    10:00 +7°C° 0 mm 2 m/s 767 mmHg 65%
    11:00 +9°C° 0 mm 1 m/s 767 mmHg 59%
    12:00 +10°C° 0 mm 1 m/s 767 mmHg 56%
    13:00 +11°C° 0 mm 1 m/s 766 mmHg 53%
    14:00 +12°C° 0 mm 1 m/s 766 mmHg 50%
    15:00 +11°C° 0 mm 1 m/s 765 mmHg 52%
    16:00 +11°C° 0 mm 1 m/s 765 mmHg 55%
    17:00 +10°C° 0 mm 0 m/s 765 mmHg 57%
    18:00 +10°C° 0 mm 1 m/s 765 mmHg 60%
    19:00 +9°C° 0 mm 1 m/s 765 mmHg 63%
    20:00 +8°C° 0 mm 1 m/s 765 mmHg 66%
    21:00 +8°C° 0 mm 1 m/s 765 mmHg 66%
    22:00 +8°C° 0 mm 1 m/s 765 mmHg 67%
    23:00 +7°C° 0 mm 2 m/s 765 mmHg 67%

    Depois de amanhã, 18 Fevereiro, Segunda-feira

    Tempo Temperatura Precipitação Vento Pressão Humidade
    00:00 +6°C° 0 mm 2 m/s 765 mmHg 68%
    01:00 +6°C° 0 mm 2 m/s 765 mmHg 69%
    02:00 +6°C° 0 mm 2 m/s 765 mmHg 70%
    03:00 +6°C° 0 mm 2 m/s 764 mmHg 70%
    04:00 +6°C° 0 mm 2 m/s 764 mmHg 70%
    05:00 +5°C° 0 mm 2 m/s 764 mmHg 70%
    06:00 +6°C° 0 mm 2 m/s 764 mmHg 69%
    07:00 +6°C° 0 mm 2 m/s 764 mmHg 68%
    08:00 +6°C° 0 mm 2 m/s 765 mmHg 67%
    09:00 +8°C° 0 mm 2 m/s 765 mmHg 61%
    10:00 +9°C° 0 mm 2 m/s 765 mmHg 55%
    11:00 +12°C° 0 mm 2 m/s 765 mmHg 48%
    12:00 +13°C° 0 mm 2 m/s 765 mmHg 48%
    13:00 +13°C° 0 mm 2 m/s 765 mmHg 47%
    14:00 +14°C° 0 mm 2 m/s 764 mmHg 47%
    15:00 +13°C° 0 mm 2 m/s 764 mmHg 52%
    16:00 +13°C° 0 mm 2 m/s 764 mmHg 56%
    17:00 +12°C° 0 mm 2 m/s 764 mmHg 61%
    18:00 +10°C° 0 mm 2 m/s 764 mmHg 65%
    19:00 +9°C° 0 mm 2 m/s 764 mmHg 70%
    20:00 +8°C° 0 mm 2 m/s 765 mmHg 74%
    21:00 +8°C° 0 mm 2 m/s 765 mmHg 75%
    22:00 +8°C° 0 mm 1 m/s 765 mmHg 76%
    23:00 +8°C° 0 mm 1 m/s 765 mmHg 77%

    19 Fevereiro, Terça-feira

    Tempo Temperatura Precipitação Vento Pressão Humidade
    00:00 +8°C° 0 mm 1 m/s 765 mmHg 79%
    01:00 +8°C° 0 mm 1 m/s 765 mmHg 80%
    02:00 +6°C° 0 mm 0 m/s 765 mmHg 81%
    03:00 +7°C° 0 mm 1 m/s 765 mmHg 82%
    04:00 +7°C° 0 mm 1 m/s 765 mmHg 83%
    05:00 +7°C° 0 mm 1 m/s 765 mmHg 84%
    06:00 +7°C° 0 mm 1 m/s 765 mmHg 84%
    07:00 +7°C° 0 mm 1 m/s 766 mmHg 84%
    08:00 +8°C° 0 mm 1 m/s 766 mmHg 84%
    09:00 +8°C° 0 mm 2 m/s 766 mmHg 79%
    10:00 +10°C° 0 mm 2 m/s 766 mmHg 73%
    11:00 +11°C° 0 mm 3 m/s 766 mmHg 67%
    12:00 +12°C° 0 mm 3 m/s 766 mmHg 66%
    13:00 +12°C° 0 mm 3 m/s 766 mmHg 64%
    14:00 +13°C° 0 mm 3 m/s 765 mmHg 63%
    15:00 +12°C° 0 mm 4 m/s 765 mmHg 67%
    16:00 +11°C° 0 mm 4 m/s 765 mmHg 71%
    17:00 +11°C° 0 mm 4 m/s 765 mmHg 75%
    18:00 +10°C° 0 mm 4 m/s 765 mmHg 79%
    19:00 +8°C° 0 mm 4 m/s 765 mmHg 84%
    20:00 +7°C° 0 mm 4 m/s 765 mmHg 88%
    21:00 +8°C° 0 mm 3 m/s 765 mmHg 88%
    22:00 +8°C° 0 mm 3 m/s 765 mmHg 88%
    23:00 +8°C° 0 mm 3 m/s 765 mmHg 88%

    20 Fevereiro, Quarta-feira

    Tempo Temperatura Precipitação Vento Pressão Humidade
    00:00 +7°C° 0 mm 3 m/s 764 mmHg 88%
    01:00 +7°C° 0 mm 2 m/s 764 mmHg 87%
    02:00 +7°C° 0 mm 2 m/s 764 mmHg 87%
    03:00 +7°C° 0 mm 2 m/s 764 mmHg 87%
    04:00 +7°C° 0 mm 2 m/s 764 mmHg 86%
    05:00 +6°C° 0 mm 2 m/s 763 mmHg 85%
    06:00 +7°C° 0 mm 2 m/s 764 mmHg 84%
    07:00 +7°C° 0 mm 2 m/s 764 mmHg 82%
    08:00 +7°C° 0 mm 2 m/s 764 mmHg 80%
    09:00 +9°C° 0 mm 2 m/s 764 mmHg 74%
    10:00 +12°C° 0 mm 2 m/s 764 mmHg 68%
    11:00 +12°C° 0 mm 3 m/s 764 mmHg 61%
    12:00 +14°C° 0 mm 2 m/s 764 mmHg 58%
    13:00 +15°C° 0 mm 2 m/s 763 mmHg 54%
    14:00 +16°C° 0 mm 1 m/s 763 mmHg 50%
    15:00 +16°C° 0 mm 1 m/s 763 mmHg 52%
    16:00 +15°C° 0 mm 1 m/s 763 mmHg 54%
    17:00 +15°C° 0 mm 1 m/s 763 mmHg 56%
    18:00 +14°C° 0 mm 1 m/s 763 mmHg 59%
    19:00 +13°C° 0 mm 1 m/s 764 mmHg 62%
    20:00 +12°C° 0 mm 1 m/s 764 mmHg 65%
    21:00 +10°C° 0 mm 2 m/s 764 mmHg 66%
    22:00 +10°C° 0 mm 2 m/s 764 mmHg 66%
    23:00 +9°C° 0 mm 2 m/s 764 mmHg 66%

    21 Fevereiro, Quinta-feira

    Tempo Temperatura Precipitação Vento Pressão Humidade
    00:00 +9°C° 0 mm 2 m/s 764 mmHg 67%
    01:00 +9°C° 0 mm 3 m/s 764 mmHg 68%
    02:00 +8°C° 0 mm 3 m/s 764 mmHg 68%
    03:00 +8°C° 0 mm 3 m/s 764 mmHg 69%
    04:00 +8°C° 0 mm 3 m/s 764 mmHg 69%
    05:00 +8°C° 0 mm 3 m/s 764 mmHg 70%
    06:00 +8°C° 0 mm 3 m/s 764 mmHg 69%
    07:00 +8°C° 0 mm 3 m/s 765 mmHg 69%
    08:00 +8°C° 0 mm 3 m/s 765 mmHg 69%
    09:00 +9°C° 0 mm 2 m/s 765 mmHg 63%
    10:00 +12°C° 0 mm 2 m/s 765 mmHg 57%
    11:00 +13°C° 0 mm 2 m/s 765 mmHg 51%
    12:00 +14°C° 0 mm 2 m/s 765 mmHg 49%
    13:00 +15°C° 0 mm 1 m/s 764 mmHg 48%
    14:00 +15°C° 0 mm 1 m/s 764 mmHg 46%
    15:00 +15°C° 0 mm 1 m/s 764 mmHg 49%
    16:00 +15°C° 0 mm 2 m/s 764 mmHg 53%
    17:00 +14°C° 0 mm 2 m/s 764 mmHg 56%
    18:00 +13°C° 0 mm 2 m/s 764 mmHg 60%
    19:00 +12°C° 0 mm 2 m/s 764 mmHg 64%
    20:00 +10°C° 0 mm 2 m/s 764 mmHg 69%
    21:00 +10°C° 0 mm 2 m/s 763 mmHg 68%
    22:00 +9°C° 0 mm 2 m/s 763 mmHg 68%
    23:00 +10°C° 0 mm 1 m/s 763 mmHg 68%
    Mostrar mais